timestamp,wind_dir_avg,wind_spd_max_dir,wind_spd_avg,wind_spd_gust,battery_voltage,lat,long
2018-05-25 00:00:00+00:00,11.0,14.0,8.07,9.21,,47.59359,-54.27349
2018-05-25 00:10:00+00:00,26.0,27.0,9.8,11.35,,47.59359,-54.27349
2018-05-25 00:20:00+00:00,23.0,18.0,7.92,10.21,,47.59359,-54.27349
2018-05-25 00:30:00+00:00,14.0,15.0,7.98,8.55,,47.59359,-54.27349
2018-05-25 00:40:00+00:00,16.0,17.0,7.88,9.49,,47.59359,-54.27349
2018-05-25 00:50:00+00:00,355.0,359.0,6.82,7.83,,47.59359,-54.27349
2018-05-25 01:00:00+00:00,347.0,349.0,7.58,8.99,,47.59359,-54.27349
2018-05-25 01:10:00+00:00,348.0,344.0,5.58,6.4,,47.59359,-54.27349
2018-05-25 01:20:00+00:00,358.0,4.0,6.51,7.29,,47.59359,-54.27349
2018-05-25 01:30:00+00:00,356.0,11.0,5.3,6.23,,47.59359,-54.27349
2018-05-25 01:40:00+00:00,350.0,350.0,6.36,7.15,,47.59359,-54.27349
2018-05-25 01:50:00+00:00,356.0,357.0,6.3,7.59,,47.59359,-54.27349
2018-05-25 02:00:00+00:00,18.0,15.0,7.32,8.09,,47.59359,-54.27349
2018-05-25 02:10:00+00:00,13.0,16.0,7.94,9.88,,47.59359,-54.27349
2018-05-25 02:20:00+00:00,5.0,2.0,7.71,8.65,,47.59359,-54.27349
2018-05-25 02:30:00+00:00,357.0,0.0,6.97,8.71,,47.59359,-54.27349
2018-05-25 02:40:00+00:00,0.0,3.0,6.53,7.04,,47.59359,-54.27349
2018-05-25 02:50:00+00:00,351.0,353.0,5.63,6.47,,47.59359,-54.27349
2018-05-25 03:00:00+00:00,350.0,358.0,5.8,6.58,,47.59359,-54.27349
2018-05-25 03:10:00+00:00,347.0,351.0,5.04,5.86,,47.59359,-54.27349
2018-05-25 03:20:00+00:00,351.0,351.0,6.75,8.02,,47.59359,-54.27349
2018-05-25 03:30:00+00:00,350.0,345.0,6.12,7.02,,47.59359,-54.27349
2018-05-25 03:40:00+00:00,356.0,355.0,7.1,8.06,,47.59359,-54.27349
2018-05-25 03:50:00+00:00,356.0,351.0,5.7,6.97,,47.59359,-54.27349
2018-05-25 04:00:00+00:00,349.0,351.0,6.3,8.17,,47.59359,-54.27349
2018-05-25 04:10:00+00:00,355.0,354.0,5.63,6.87,,47.59359,-54.27349
2018-05-25 04:20:00+00:00,350.0,344.0,6.13,7.15,,47.59359,-54.27349
2018-05-25 04:30:00+00:00,352.0,354.0,7.01,7.8,,47.59359,-54.27349
2018-05-25 04:40:00+00:00,346.0,342.0,6.14,7.1,,47.59359,-54.27349
2018-05-25 04:50:00+00:00,322.0,317.0,5.82,6.45,,47.59359,-54.27349
2018-05-25 05:00:00+00:00,327.0,325.0,5.17,5.93,,47.59359,-54.27349
2018-05-25 05:10:00+00:00,328.0,332.0,5.54,6.27,,47.59359,-54.27349
2018-05-25 05:20:00+00:00,329.0,332.0,4.29,4.9,,47.59359,-54.27349
2018-05-25 05:30:00+00:00,321.0,322.0,5.27,5.96,,47.59359,-54.27349
2018-05-25 05:40:00+00:00,332.0,340.0,4.84,6.09,,47.59359,-54.27349
2018-05-25 05:50:00+00:00,328.0,323.0,5.15,5.96,,47.59359,-54.27349
2018-05-25 06:00:00+00:00,325.0,327.0,4.91,5.57,,47.59359,-54.27349
2018-05-25 06:10:00+00:00,326.0,321.0,4.57,5.26,,47.59359,-54.27349
2018-05-25 06:20:00+00:00,326.0,327.0,4.87,5.38,,47.59359,-54.27349
2018-05-25 06:30:00+00:00,326.0,326.0,4.5,4.94,,47.59359,-54.27349
2018-05-25 06:40:00+00:00,327.0,330.0,4.52,5.02,,47.59359,-54.27349
2018-05-25 06:50:00+00:00,325.0,326.0,4.29,4.63,,47.59359,-54.27349
2018-05-25 07:00:00+00:00,333.0,337.0,4.33,4.86,,47.59359,-54.27349
2018-05-25 07:10:00+00:00,328.0,328.0,3.87,4.14,,47.59359,-54.27349
2018-05-25 07:20:00+00:00,341.0,341.0,3.32,3.72,,47.59359,-54.27349
2018-05-25 07:30:00+00:00,6.0,7.0,3.27,3.58,,47.59359,-54.27349
2018-05-25 07:40:00+00:00,20.0,17.0,3.33,3.93,,47.59359,-54.27349
2018-05-25 07:50:00+00:00,54.0,52.0,3.88,4.42,,47.59359,-54.27349
2018-05-25 08:00:00+00:00,53.0,51.0,2.73,3.1,,47.59359,-54.27349
2018-05-25 08:10:00+00:00,49.0,44.0,2.07,2.36,,47.59359,-54.27349
2018-05-25 08:20:00+00:00,49.0,49.0,1.22,1.54,,47.59359,-54.27349
2018-05-25 08:30:00+00:00,0.0,4.0,1.51,1.78,,47.59359,-54.27349
2018-05-25 08:40:00+00:00,353.0,355.0,1.14,1.46,,47.59359,-54.27349
2018-05-25 08:50:00+00:00,316.0,321.0,1.56,1.95,,47.59359,-54.27349
2018-05-25 09:00:00+00:00,275.0,294.0,1.03,1.28,,47.59359,-54.27349
2018-05-25 09:10:00+00:00,232.0,239.0,0.91,1.23,,47.59359,-54.27349
2018-05-25 09:20:00+00:00,216.0,222.0,1.68,2.09,,47.59359,-54.27349
2018-05-25 09:30:00+00:00,223.0,222.0,2.26,2.76,,47.59359,-54.27349
2018-05-25 09:40:00+00:00,231.0,236.0,2.38,2.77,,47.59359,-54.27349
2018-05-25 09:50:00+00:00,225.0,229.0,2.81,3.37,,47.59359,-54.27349
2018-05-25 10:00:00+00:00,232.0,231.0,2.88,3.26,,47.59359,-54.27349
2018-05-25 10:10:00+00:00,234.0,232.0,3.32,4.49,,47.59359,-54.27349
2018-05-25 10:20:00+00:00,230.0,224.0,3.7,4.22,,47.59359,-54.27349
2018-05-25 10:30:00+00:00,237.0,240.0,4.1,4.56,,47.59359,-54.27349
2018-05-25 10:40:00+00:00,247.0,250.0,4.05,5.08,,47.59359,-54.27349
2018-05-25 10:50:00+00:00,255.0,255.0,4.74,5.2,,47.59359,-54.27349
2018-05-25 11:00:00+00:00,246.0,253.0,4.06,5.04,,47.59359,-54.27349
2018-05-25 11:10:00+00:00,248.0,244.0,4.93,5.53,,47.59359,-54.27349
2018-05-25 11:20:00+00:00,229.0,229.0,5.17,5.85,,47.59359,-54.27349
2018-05-25 11:30:00+00:00,227.0,233.0,5.64,6.16,,47.59359,-54.27349
2018-05-25 11:40:00+00:00,226.0,225.0,5.65,6.37,,47.59359,-54.27349
2018-05-25 11:50:00+00:00,223.0,223.0,5.54,6.43,,47.59359,-54.27349
2018-05-25 12:00:00+00:00,225.0,230.0,5.33,6.17,,47.59359,-54.27349
2018-05-25 12:10:00+00:00,221.0,219.0,5.6,6.08,,47.59359,-54.27349
2018-05-25 12:20:00+00:00,224.0,216.0,4.9,5.62,,47.59359,-54.27349
2018-05-25 12:30:00+00:00,224.0,227.0,5.55,6.37,,47.59359,-54.27349
2018-05-25 12:40:00+00:00,226.0,225.0,5.8,6.68,,47.59359,-54.27349
2018-05-25 12:50:00+00:00,234.0,240.0,6.11,6.93,,47.59359,-54.27349
2018-05-25 13:00:00+00:00,235.0,231.0,6.11,6.9,,47.59359,-54.27349
2018-05-25 13:10:00+00:00,234.0,238.0,6.47,7.98,,47.59359,-54.27349
2018-05-25 13:20:00+00:00,232.0,234.0,6.89,7.66,,47.59359,-54.27349
2018-05-25 13:30:00+00:00,229.0,230.0,6.91,7.92,,47.59359,-54.27349
2018-05-25 13:40:00+00:00,227.0,227.0,7.06,8.05,,47.59359,-54.27349
2018-05-25 13:50:00+00:00,224.0,219.0,7.48,8.74,,47.59359,-54.27349
2018-05-25 14:00:00+00:00,227.0,223.0,6.78,7.73,,47.59359,-54.27349
2018-05-25 14:10:00+00:00,226.0,224.0,7.7,8.85,,47.59359,-54.27349
2018-05-25 14:20:00+00:00,220.0,217.0,6.95,7.89,,47.59359,-54.27349
2018-05-25 14:30:00+00:00,223.0,222.0,6.47,7.38,,47.59359,-54.27349
2018-05-25 14:40:00+00:00,219.0,224.0,7.03,7.91,,47.59359,-54.27349
2018-05-25 14:50:00+00:00,216.0,215.0,6.96,7.86,,47.59359,-54.27349
2018-05-25 15:00:00+00:00,216.0,218.0,6.47,7.26,,47.59359,-54.27349
2018-05-25 15:10:00+00:00,226.0,226.0,6.76,7.54,,47.59359,-54.27349
2018-05-25 15:20:00+00:00,229.0,226.0,7.76,9.79,,47.59359,-54.27349
2018-05-25 15:30:00+00:00,217.0,210.0,6.75,7.85,,47.59359,-54.27349
2018-05-25 15:40:00+00:00,224.0,227.0,8.12,9.06,,47.59359,-54.27349
2018-05-25 15:50:00+00:00,216.0,222.0,7.36,8.78,,47.59359,-54.27349
2018-05-25 16:00:00+00:00,222.0,227.0,8.27,9.53,,47.59359,-54.27349
2018-05-25 16:10:00+00:00,227.0,230.0,10.35,11.91,,47.59359,-54.27349
2018-05-25 16:20:00+00:00,219.0,216.0,9.56,10.32,,47.59359,-54.27349
2018-05-25 16:30:00+00:00,217.0,217.0,9.56,10.55,,47.59359,-54.27349
2018-05-25 16:40:00+00:00,219.0,218.0,9.16,10.54,,47.59359,-54.27349
2018-05-25 16:50:00+00:00,207.0,207.0,9.34,9.98,,47.59359,-54.27349
2018-05-25 17:00:00+00:00,214.0,219.0,9.16,10.47,,47.59359,-54.27349
2018-05-25 17:10:00+00:00,210.0,216.0,10.86,11.66,,47.59359,-54.27349
2018-05-25 17:20:00+00:00,205.0,202.0,9.6,10.74,,47.59359,-54.27349
2018-05-25 17:30:00+00:00,201.0,199.0,9.15,10.42,,47.59359,-54.27349
2018-05-25 17:40:00+00:00,199.0,206.0,9.41,11.78,,47.59359,-54.27349
2018-05-25 17:50:00+00:00,197.0,202.0,8.64,10.5,,47.59359,-54.27349
2018-05-25 18:00:00+00:00,192.0,191.0,9.63,11.05,,47.59359,-54.27349
2018-05-25 18:10:00+00:00,195.0,202.0,9.45,10.59,,47.59359,-54.27349
2018-05-25 18:20:00+00:00,203.0,200.0,9.95,12.14,,47.59359,-54.27349
2018-05-25 18:30:00+00:00,210.0,216.0,10.08,11.57,,47.59359,-54.27349
2018-05-25 18:40:00+00:00,200.0,204.0,9.88,11.73,,47.59359,-54.27349
2018-05-25 18:50:00+00:00,207.0,215.0,11.14,13.14,,47.59359,-54.27349
2018-05-25 19:00:00+00:00,200.0,196.0,10.57,12.2,,47.59359,-54.27349
2018-05-25 19:10:00+00:00,205.0,203.0,9.51,11.12,,47.59359,-54.27349
2018-05-25 19:20:00+00:00,198.0,207.0,11.3,13.86,,47.59359,-54.27349
2018-05-25 19:30:00+00:00,192.0,190.0,12.12,13.18,,47.59359,-54.27349
2018-05-25 19:40:00+00:00,205.0,209.0,11.44,12.87,,47.59359,-54.27349
2018-05-25 19:50:00+00:00,210.0,210.0,11.14,13.03,,47.59359,-54.27349
2018-05-25 20:00:00+00:00,204.0,204.0,10.24,11.53,,47.59359,-54.27349
2018-05-25 20:10:00+00:00,209.0,211.0,12.85,13.91,,47.59359,-54.27349
2018-05-25 20:20:00+00:00,207.0,213.0,12.27,14.1,,47.59359,-54.27349
2018-05-25 20:30:00+00:00,202.0,208.0,12.58,14.7,,47.59359,-54.27349
2018-05-25 20:40:00+00:00,201.0,199.0,12.16,13.86,,47.59359,-54.27349
2018-05-25 20:50:00+00:00,195.0,195.0,11.1,12.41,,47.59359,-54.27349
2018-05-25 21:00:00+00:00,195.0,192.0,11.83,13.08,,47.59359,-54.27349
2018-05-25 21:10:00+00:00,196.0,199.0,10.58,11.77,,47.59359,-54.27349
2018-05-25 21:20:00+00:00,196.0,188.0,11.09,12.43,,47.59359,-54.27349
2018-05-25 21:30:00+00:00,195.0,192.0,10.06,11.82,,47.59359,-54.27349
2018-05-25 21:40:00+00:00,195.0,196.0,9.85,11.01,,47.59359,-54.27349
2018-05-25 21:50:00+00:00,194.0,194.0,10.3,11.89,,47.59359,-54.27349
2018-05-25 22:00:00+00:00,193.0,188.0,10.59,13.37,,47.59359,-54.27349
2018-05-25 22:10:00+00:00,188.0,186.0,9.48,10.51,,47.59359,-54.27349
2018-05-25 22:20:00+00:00,191.0,197.0,9.3,11.25,,47.59359,-54.27349
2018-05-25 22:30:00+00:00,185.0,182.0,9.6,11.74,,47.59359,-54.27349
2018-05-25 22:40:00+00:00,187.0,184.0,8.98,10.11,,47.59359,-54.27349
2018-05-25 22:50:00+00:00,185.0,186.0,8.74,9.88,,47.59359,-54.27349
2018-05-25 23:00:00+00:00,189.0,185.0,10.11,11.34,,47.59359,-54.27349
2018-05-25 23:10:00+00:00,187.0,192.0,7.51,8.59,,47.59359,-54.27349
2018-05-25 23:20:00+00:00,192.0,197.0,9.24,10.48,,47.59359,-54.27349
2018-05-25 23:30:00+00:00,198.0,199.0,9.23,11.47,,47.59359,-54.27349
2018-05-25 23:40:00+00:00,182.0,180.0,9.24,10.11,,47.59359,-54.27349
2018-05-25 23:50:00+00:00,181.0,180.0,8.05,9.81,,47.59359,-54.27349
